Location: Battersea Observatory
(44.4318°N, 76.3841°W)
Time: 21:21:21
(UTC-05:00)

Tiros 1 despin weight - All Passes

Search period start: 22 January 2022 00:00
Search period end: 01 February 2022 00:00
Orbit: 592 x 641 km, 48.2° (Epoch: 22 January)

Date Brightness Start Highest point End Pass type
(mag) Time Alt. Az. Time Alt. Az. Time Alt. Az.
22 Jan - 01:21:17 10° W 01:23:50 15° SW 01:26:22 10° SSW night (unlit)
22 Jan - 17:08:44 10° SSW 17:12:34 27° SE 17:16:28 10° E daylight
22 Jan - 18:49:09 10° WSW 18:53:45 87° NNW 18:58:26 10° ENE visible
22 Jan - 20:31:04 10° W 20:35:36 53° N 20:40:12 10° ENE visible
22 Jan - 22:12:50 10° WNW 22:17:32 75° NNE 22:22:13 10° ESE night (unlit)
22 Jan - 23:54:36 10° WNW 23:58:53 36° SW 00:03:10 10° SSE night (unlit)
23 Jan - 17:24:04 10° SW 17:28:24 46° SSE 17:32:51 10° ENE visible
23 Jan - 19:05:20 10° W 19:09:54 66° NNW 19:14:33 10° ENE visible
23 Jan - 20:47:17 10° WNW 20:51:52 55° N 20:56:28 10° E visible
23 Jan - 22:28:57 10° WNW 22:33:37 78° SSW 22:38:19 10° ESE night (unlit)
24 Jan - 00:11:10 10° W 00:14:41 21° SW 00:18:11 10° S night (unlit)
24 Jan - 16:00:12 10° S 16:03:24 19° SE 16:06:38 10° E daylight
24 Jan - 17:39:50 10° WSW 17:44:23 74° SSE 17:49:01 10° ENE visible
24 Jan - 19:21:35 10° W 19:26:07 55° N 19:30:43 10° ENE visible
24 Jan - 21:03:27 10° WNW 21:08:05 64° NNE 21:12:44 10° E visible
24 Jan - 22:45:06 10° WNW 22:49:37 49° SSW 22:54:08 10° SE night (unlit)
25 Jan - 00:28:59 10° WSW 00:30:21 11° SW 00:31:44 10° SSW night (unlit)
25 Jan - 16:15:06 10° SSW 16:19:10 33° SE 16:23:18 10° E daylight
25 Jan - 17:55:53 10° WSW 18:00:28 77° NNW 18:05:08 10° ENE visible
25 Jan - 19:37:50 10° WNW 19:42:22 53° N 19:46:57 10° E visible
25 Jan - 21:19:33 10° WNW 21:24:14 85° NNE 21:28:56 10° ESE visible
25 Jan - 23:01:26 10° W 23:05:29 29° SW 23:09:32 10° SSE night (unlit)
26 Jan - 14:52:15 10° SSE 14:54:16 13° SE 14:56:20 10° ESE daylight
26 Jan - 16:30:38 10° SW 16:35:03 56° SSE 16:39:34 10° ENE daylight
26 Jan - 18:12:06 10° W 18:16:39 60° N 18:21:15 10° ENE visible
26 Jan - 19:54:02 10° WNW 19:58:36 57° N 20:03:13 10° E visible
26 Jan - 21:35:40 10° WNW 21:40:17 66° SSW 21:44:56 10° SE visible
26 Jan - 23:18:16 10° W 23:21:13 17° SW 23:24:11 10° S night (unlit)
27 Jan - 15:06:22 10° SSW 15:09:57 24° SE 15:13:36 10° E daylight
27 Jan - 16:46:31 10° WSW 16:51:04 86° SSE 16:55:42 10° ENE daylight
27 Jan - 18:28:22 10° W 18:32:52 53° N 18:37:25 10° ENE visible
27 Jan - 20:10:10 10° WNW 20:14:48 71° NNE 20:19:28 10° E visible
27 Jan - 21:51:52 10° WNW 21:56:13 40° SW 22:00:36 10° SE night (unlit)
28 Jan - 15:21:33 10° SW 15:25:46 41° SE 15:30:04 10° ENE daylight
28 Jan - 17:02:39 10° W 17:07:11 69° NNW 17:11:48 10° ENE daylight
28 Jan - 18:44:36 10° WNW 18:49:07 53° N 18:53:41 10° E visible
28 Jan - 20:26:15 10° WNW 20:30:55 84° SSW 20:35:35 10° ESE visible
28 Jan - 22:08:20 10° W 22:12:02 24° SW 22:15:45 10° SSE night (unlit)
29 Jan - 13:57:59 10° S 14:00:48 16° SE 14:03:38 10° E daylight
29 Jan - 15:37:15 10° SW 15:41:42 67° SSE 15:46:15 10° ENE daylight
29 Jan - 17:18:53 10° W 17:23:22 56° N 17:27:56 10° ENE daylight
29 Jan - 19:00:46 10° WNW 19:05:20 61° NNE 19:09:57 10° E visible
29 Jan - 20:42:23 10° WNW 20:46:55 55° SSW 20:51:28 10° SE visible
29 Jan - 22:25:36 10° WSW 22:27:44 13° SW 22:29:51 10° SSW night (unlit)
30 Jan - 14:12:39 10° SSW 14:16:31 29° SE 14:20:27 10° E daylight
30 Jan - 15:53:14 10° WSW 15:57:45 83° NNW 16:02:22 10° ENE daylight
30 Jan - 17:35:08 10° WNW 17:39:36 52° N 17:44:08 10° ENE visible
30 Jan - 19:16:52 10° WNW 19:21:29 79° NNE 19:26:09 10° ESE visible
30 Jan - 20:58:39 10° W 21:02:48 33° SW 21:06:58 10° SSE visible
31 Jan - 12:50:36 10° SE 12:51:41 11° SE 12:52:46 10° ESE daylight
31 Jan - 14:28:03 10° SW 14:32:22 50° SSE 14:36:47 10° ENE daylight
31 Jan - 16:09:25 10° W 16:13:54 63° NNW 16:18:28 10° ENE daylight
31 Jan - 17:51:20 10° WNW 17:55:50 55° N 18:00:24 10° E visible
31 Jan - 19:32:57 10° WNW 19:37:33 72° SSW 19:42:12 10° ESE visible
31 Jan - 21:15:19 10° W 21:18:34 19° SW 21:21:49 10° S visible
